• In Belarus
  • List of Countries
  • For 7 days
  • Water Temperature
  • Satellite Maps
  • Weather Map
  • Weather Widgets
  • user-avatar
    Login

    Hourly Weather Tibissa

    Today, 27 June, Tuesday

    Time Temperature Precipitation Wind Pressure Humidity
    00:00 +29°C° 0 mm 2 mps 686 mmHg 25%
    01:00 +28°C° 0 mm 2 mps 686 mmHg 27%
    02:00 +28°C° 0 mm 2 mps 686 mmHg 28%
    03:00 +28°C° 0 mm 2 mps 686 mmHg 28%
    04:00 +27°C° 0 mm 2 mps 685 mmHg 29%
    05:00 +28°C° 0 mm 2 mps 686 mmHg 27%
    06:00 +29°C° 0 mm 2 mps 686 mmHg 25%
    07:00 +30°C° 0 mm 2 mps 686 mmHg 23%
    08:00 +33°C° 0 mm 3 mps 687 mmHg 20%
    09:00 +36°C° 0 mm 4 mps 687 mmHg 17%
    10:00 +39°C° 0 mm 5 mps 688 mmHg 15%
    11:00 +40°C° 0.1 mm 5 mps 688 mmHg 14%
    12:00 +41°C° 0.1 mm 5 mps 687 mmHg 14%
    13:00 +42°C° 0.1 mm 5 mps 687 mmHg 13%
    14:00 +41°C° 0 mm 5 mps 687 mmHg 15%
    15:00 +40°C° 0 mm 4 mps 687 mmHg 16%
    16:00 +38°C° 0 mm 4 mps 686 mmHg 17%
    17:00 +36°C° 0.4 mm 4 mps 686 mmHg 22%
    18:00 +34°C° 0.4 mm 5 mps 686 mmHg 27%
    19:00 +32°C° 0.4 mm 5 mps 685 mmHg 31%
    20:00 +30°C° 0 mm 4 mps 686 mmHg 34%
    21:00 +29°C° 0 mm 3 mps 686 mmHg 36%
    22:00 +28°C° 0 mm 2 mps 686 mmHg 39%
    23:00 +28°C° 0 mm 2 mps 686 mmHg 39%

    Tomorrow, 28 June, Wednesday

    Time Temperature Precipitation Wind Pressure Humidity
    00:00 +28°C° 0 mm 2 mps 685 mmHg 40%
    01:00 +27°C° 0 mm 2 mps 685 mmHg 40%
    02:00 +27°C° 0 mm 2 mps 685 mmHg 39%
    03:00 +27°C° 0 mm 2 mps 685 mmHg 37%
    04:00 +27°C° 0 mm 2 mps 684 mmHg 36%
    05:00 +28°C° 0 mm 2 mps 685 mmHg 33%
    06:00 +29°C° 0 mm 3 mps 685 mmHg 30%
    07:00 +30°C° 0 mm 3 mps 685 mmHg 26%
    08:00 +33°C° 0 mm 4 mps 685 mmHg 22%
    09:00 +36°C° 0 mm 6 mps 686 mmHg 17%
    10:00 +39°C° 0 mm 8 mps 686 mmHg 12%
    11:00 +40°C° 0 mm 8 mps 686 mmHg 11%
    12:00 +40°C° 0 mm 9 mps 686 mmHg 10%
    13:00 +42°C° 0 mm 9 mps 686 mmHg 9%
    14:00 +42°C° 0 mm 9 mps 686 mmHg 9%
    15:00 +42°C° 0 mm 9 mps 685 mmHg 9%
    16:00 +42°C° 0 mm 9 mps 685 mmHg 9%
    17:00 +40°C° 0 mm 8 mps 685 mmHg 10%
    18:00 +38°C° 0 mm 7 mps 684 mmHg 12%
    19:00 +36°C° 0 mm 6 mps 684 mmHg 14%
    20:00 +34°C° 0 mm 5 mps 684 mmHg 18%
    21:00 +32°C° 0 mm 4 mps 684 mmHg 23%
    22:00 +29°C° 0 mm 3 mps 684 mmHg 28%
    23:00 +28°C° 0 mm 2 mps 684 mmHg 32%

    Day after tomorrow, 29 June, Thursday

    Time Temperature Precipitation Wind Pressure Humidity
    00:00 +27°C° 0 mm 2 mps 684 mmHg 35%
    01:00 +26°C° 0 mm 2 mps 684 mmHg 38%
    02:00 +25°C° 0 mm 2 mps 684 mmHg 42%
    03:00 +24°C° 0 mm 2 mps 683 mmHg 46%
    04:00 +23°C° 0 mm 1 mps 683 mmHg 50%
    05:00 +24°C° 0 mm 1 mps 683 mmHg 48%
    06:00 +24°C° 0 mm 1 mps 684 mmHg 46%
    07:00 +25°C° 0 mm 1 mps 684 mmHg 44%
    08:00 +27°C° 0 mm 2 mps 685 mmHg 37%
    09:00 +30°C° 0 mm 3 mps 685 mmHg 29%
    10:00 +33°C° 0 mm 4 mps 686 mmHg 21%
    11:00 +35°C° 0 mm 5 mps 686 mmHg 17%
    12:00 +38°C° 0 mm 6 mps 686 mmHg 14%
    13:00 +40°C° 0 mm 7 mps 686 mmHg 11%
    14:00 +40°C° 0 mm 7 mps 686 mmHg 11%
    15:00 +41°C° 0 mm 8 mps 686 mmHg 10%
    16:00 +41°C° 0 mm 8 mps 685 mmHg 10%
    17:00 +40°C° 0 mm 7 mps 685 mmHg 11%
    18:00 +39°C° 0 mm 6 mps 685 mmHg 13%
    19:00 +36°C° 0 mm 5 mps 685 mmHg 14%
    20:00 +34°C° 0 mm 4 mps 685 mmHg 19%
    21:00 +31°C° 0 mm 3 mps 685 mmHg 24%
    22:00 +28°C° 0 mm 2 mps 685 mmHg 29%
    23:00 +28°C° 0 mm 2 mps 684 mmHg 32%

    30 June, Friday

    Time Temperature Precipitation Wind Pressure Humidity
    00:00 +27°C° 0 mm 2 mps 684 mmHg 34%
    01:00 +26°C° 0 mm 2 mps 684 mmHg 37%
    02:00 +26°C° 0 mm 2 mps 684 mmHg 40%
    03:00 +25°C° 0 mm 2 mps 683 mmHg 44%
    04:00 +25°C° 0 mm 2 mps 683 mmHg 47%
    05:00 +26°C° 0 mm 3 mps 683 mmHg 43%
    06:00 +28°C° 0 mm 4 mps 683 mmHg 39%
    07:00 +29°C° 0 mm 4 mps 683 mmHg 35%
    08:00 +33°C° 0 mm 6 mps 684 mmHg 27%
    09:00 +37°C° 0 mm 8 mps 685 mmHg 19%
    10:00 +40°C° 0 mm 10 mps 685 mmHg 12%
    11:00 +40°C° 0 mm 10 mps 685 mmHg 11%
    12:00 +42°C° 0 mm 10 mps 685 mmHg 10%
    13:00 +42°C° 0 mm 10 mps 684 mmHg 10%
    14:00 +43°C° 0 mm 10 mps 684 mmHg 9%
    15:00 +43°C° 0 mm 10 mps 684 mmHg 8%
    16:00 +43°C° 0 mm 10 mps 684 mmHg 8%
    17:00 +42°C° 0 mm 9 mps 684 mmHg 9%
    18:00 +40°C° 0 mm 7 mps 683 mmHg 11%
    19:00 +39°C° 0 mm 6 mps 683 mmHg 12%
    20:00 +35°C° 0 mm 5 mps 684 mmHg 19%
    21:00 +33°C° 0 mm 5 mps 684 mmHg 26%
    22:00 +30°C° 0 mm 4 mps 684 mmHg 32%
    23:00 +28°C° 0 mm 4 mps 684 mmHg 41%

    1 July, Saturday

    Time Temperature Precipitation Wind Pressure Humidity
    00:00 +27°C° 0 mm 4 mps 684 mmHg 50%
    01:00 +25°C° 0 mm 4 mps 684 mmHg 59%
    02:00 +23°C° 0 mm 4 mps 684 mmHg 62%
    03:00 +22°C° 0 mm 4 mps 684 mmHg 65%
    04:00 +21°C° 0 mm 4 mps 683 mmHg 68%
    05:00 +21°C° 0 mm 4 mps 684 mmHg 66%
    06:00 +22°C° 0 mm 4 mps 684 mmHg 63%
    07:00 +22°C° 0 mm 4 mps 685 mmHg 60%
    08:00 +25°C° 0 mm 4 mps 685 mmHg 53%
    09:00 +26°C° 0 mm 4 mps 686 mmHg 46%
    10:00 +28°C° 0 mm 4 mps 686 mmHg 38%
    11:00 +30°C° 0 mm 4 mps 686 mmHg 34%
    12:00 +33°C° 0 mm 4 mps 687 mmHg 31%
    13:00 +34°C° 0 mm 4 mps 687 mmHg 27%
    14:00 +35°C° 0 mm 4 mps 687 mmHg 26%
    15:00 +35°C° 0 mm 5 mps 687 mmHg 26%
    16:00 +35°C° 0 mm 5 mps 686 mmHg 25%
    17:00 +34°C° 0 mm 5 mps 686 mmHg 31%
    18:00 +32°C° 0 mm 6 mps 686 mmHg 37%
    19:00 +29°C° 0 mm 6 mps 686 mmHg 43%
    20:00 +27°C° 0 mm 6 mps 686 mmHg 51%
    21:00 +25°C° 0 mm 5 mps 686 mmHg 58%
    22:00 +22°C° 0 mm 5 mps 687 mmHg 66%
    23:00 +21°C° 0 mm 5 mps 687 mmHg 68%

    2 July, Sunday

    Time Temperature Precipitation Wind Pressure Humidity
    00:00 +20°C° 0 mm 6 mps 687 mmHg 71%
    01:00 +20°C° 0 mm 6 mps 686 mmHg 73%
    02:00 +19°C° 0.2 mm 6 mps 686 mmHg 74%
    03:00 +17°C° 0.2 mm 5 mps 686 mmHg 75%
    04:00 +17°C° 0.2 mm 5 mps 686 mmHg 76%
    05:00 +17°C° 0.1 mm 5 mps 686 mmHg 73%
    06:00 +19°C° 0.1 mm 5 mps 687 mmHg 69%
    07:00 +19°C° 0.1 mm 4 mps 687 mmHg 66%
    08:00 +21°C° 0 mm 5 mps 687 mmHg 56%
    09:00 +23°C° 0 mm 5 mps 688 mmHg 47%
    10:00 +26°C° 0 mm 5 mps 688 mmHg 38%
    11:00 +27°C° 0 mm 5 mps 688 mmHg 35%
    12:00 +29°C° 0 mm 4 mps 688 mmHg 32%
    13:00 +30°C° 0 mm 4 mps 688 mmHg 29%
    14:00 +30°C° 0 mm 4 mps 688 mmHg 29%
    15:00 +32°C° 0 mm 4 mps 688 mmHg 28%
    16:00 +32°C° 0 mm 4 mps 688 mmHg 28%
    17:00 +30°C° 0 mm 5 mps 688 mmHg 32%
    18:00 +28°C° 0 mm 5 mps 687 mmHg 36%
    19:00 +27°C° 0 mm 6 mps 687 mmHg 40%
    20:00 +25°C° 0 mm 5 mps 687 mmHg 46%
    21:00 +22°C° 0 mm 5 mps 688 mmHg 52%
    22:00 +21°C° 0 mm 4 mps 688 mmHg 58%
    23:00 +20°C° 0 mm 4 mps 688 mmHg 61%
    Show more